EDT,Max TemperatureF,Mean TemperatureF,Min TemperatureF,Max Dew PointF,MeanDew PointF,Min DewpointF,Max Humidity, Mean Humidity, Min Humidity, Max Sea Level PressureIn, Mean Sea Level PressureIn, Min Sea Level PressureIn, Max VisibilityMiles, Mean VisibilityMiles, Min VisibilityMiles, Max Wind SpeedMPH, Mean Wind SpeedMPH, Max Gust SpeedMPH,PrecipitationIn, CloudCover, Events, WindDirDegrees
2012-10-1,64,55,46,48,46,43,88,78,56,30.00,29.88,29.79,10,10,10,12,5,21,0.00,1,,270
2012-10-2,64,58,51,57,53,48,94,88,68,30.07,30.04,29.99,10,7,1,9,2,,0.01,7,Rain,107
2012-10-3,71,65,59,66,61,57,94,93,83,30.15,30.09,30.03,10,2,0,6,3,,0.00,8,Fog,69
2012-10-4,68,64,60,64,63,57,94,93,88,30.17,30.13,30.07,10,2,0,5,1,,0.00,8,Fog-Rain,46
2012-10-5,73,64,55,61,56,54,94,85,53,30.09,30.04,29.96,10,5,0,6,0,,0.00,4,Fog,254
2012-10-6,73,60,46,59,52,39,94,78,57,30.00,29.91,29.78,10,7,2,16,3,23,0.00,1,,274
2012-10-7,51,44,37,45,39,34,93,81,58,30.12,30.07,30.00,10,10,6,7,2,,0.05,4,Rain,330
2012-10-8,51,44,37,43,39,32,93,81,58,30.30,30.21,30.11,10,9,3,7,2,,0.00,3,,335
2012-10-9,55,50,44,46,43,39,87,80,72,30.28,30.21,30.13,10,10,10,12,6,17,0.00,7,,61
2012-10-10,62,55,48,55,47,37,94,80,62,30.13,29.96,29.80,10,8,1,12,7,21,0.00,6,Rain,21
2012-10-11,55,48,42,36,34,30,76,62,38,30.18,30.09,29.93,10,10,10,14,5,21,0.00,0,,277
2012-10-12,50,42,33,37,29,21,87,61,37,30.43,30.19,30.06,10,10,10,17,6,26,0.00,1,Rain,296
2012-10-13,51,38,26,34,24,18,86,61,30,30.52,30.43,30.32,10,10,10,8,3,,0.00,0,,315
2012-10-14,64,55,46,54,46,36,82,73,59,30.31,30.14,29.99,10,10,10,12,7,22,0.00,3,Rain,216
2012-10-15,68,62,55,59,56,54,94,83,68,29.98,29.80,29.67,10,8,2,14,8,21,0.01,6,Rain,211
2012-10-16,55,46,37,54,41,32,94,75,47,29.94,29.76,29.66,10,9,3,18,5,30,0.00,4,,341
2012-10-17,59,46,33,41,34,28,87,73,42,30.03,29.98,29.93,10,10,10,7,2,,0.00,0,Fog,341
2012-10-18,62,50,37,50,43,34,93,80,55,30.09,30.04,30.02,10,9,3,14,3,21,0.00,3,Fog,131
2012-10-19,64,60,55,63,58,52,94,91,88,30.02,29.87,29.73,10,5,0,21,10,33,0.44,8,Rain,157
2012-10-20,69,60,50,61,51,36,94,74,43,29.83,29.74,29.67,10,7,0,12,6,22,0.00,4,,230
2012-10-21,60,52,44,39,36,36,76,58,39,30.00,29.92,29.83,10,10,10,13,5,20,0.00,2,,282
2012-10-22,64,52,39,39,37,36,87,59,37,30.09,30.04,30.00,10,10,10,12,3,20,0.00,0,,312
2012-10-23,60,52,44,48,42,36,88,70,48,30.15,30.11,30.08,10,8,2,6,3,,0.02,4,Rain,334
2012-10-24,53,52,50,48,45,39,88,78,58,30.24,30.17,30.14,10,7,2,6,2,,0.04,8,Rain,68
2012-10-25,57,54,51,46,43,37,76,68,48,30.31,30.27,30.23,10,10,10,7,1,,0.00,8,,157
2012-10-26,62,58,53,54,49,46,82,76,72,30.28,30.24,30.16,10,10,10,4,1,,0.00,8,,140
2012-10-27,62,58,55,52,51,50,88,79,68,30.09,30.02,29.98,10,10,5,9,4,16,0.00,4,,60
2012-10-28,55,52,50,50,44,36,88,71,54,29.97,29.88,29.70,20,10,6,17,11,29,0.00,4,,53
2012-10-29,53,50,48,48,45,43,88,86,82,29.71,29.58,29.32,10,4,2,21,16,34,0.01,8,Rain,45
2012-10-30,,,,,,,,,,,,,,,,,,,,,,
2012-10-31,50,46,42,37,36,36,76,71,62,29.58,29.56,29.53,10,10,10,12,5,22,0.00,7,,231